This is the latest recevied weather packets stored in our database for station/object WB5RFA. If no packets are shown the sender has not sent any weather packets the latest 10 day(s).
| Time | Temp. | Humidity | Pressure | Rain* | Wind** | Luminosity | Snow |
|---|---|---|---|---|---|---|---|
| 1787863299 | 28.89° C | 50% | 1016.2 hPa | 0 mm | - | - | - |
| 1787862820 | 28.89° C | 48% | 1016.1 hPa | 0 mm | - | - | - |
| 1787862340 | 28.89° C | 50% | 1016.3 hPa | 0 mm | - | - | - |
| 1787861860 | 28.89° C | 49% | 1016.3 hPa | 0 mm | - | - | - |
| 1787861380 | 28.89° C | 51% | 1016.3 hPa | 0 mm | - | - | - |
| 1787860900 | 28.89° C | 51% | 1016.6 hPa | 0 mm | - | - | - |
| 1787860420 | 28.33° C | 53% | 1016.6 hPa | 0 mm | - | - | - |
| 1787859939 | 28.89° C | 52% | 1016.6 hPa | 0 mm | - | - | - |
| 1787859459 | 28.89° C | 51% | 1016.6 hPa | 0 mm | - | - | - |
| 1787858979 | 28.89° C | 52% | 1016.6 hPa | 0 mm | - | - | - |
| 1787858500 | 28.89° C | 51% | 1016.7 hPa | 0 mm | - | - | - |
| 1787858019 | 28.89° C | 50% | 1016.7 hPa | 0 mm | - | - | - |
| 1787857540 | 28.89° C | 51% | 1016.8 hPa | 0 mm | - | - | - |
| 1787857060 | 28.89° C | 51% | 1016.7 hPa | 0 mm | - | - | - |
| 1787856580 | 28.89° C | 51% | 1016.7 hPa | 0 mm | - | - | - |
| 1787856099 | 28.89° C | 50% | 1016.7 hPa | 0 mm | - | - | - |
| 1787855619 | 28.89° C | 53% | 1016.8 hPa | 0 mm | - | - | - |
| 1787855138 | 28.89° C | 53% | 1016.8 hPa | 0 mm | - | - | - |
| 1787854660 | 28.33° C | 52% | 1016.8 hPa | 0 mm | - | - | - |
| 1787854180 | 28.89° C | 53% | 1016.8 hPa | 0 mm | - | - | - |
| 1787853700 | 28.89° C | 53% | 1016.9 hPa | 0 mm | - | - | - |
| 1787853219 | 28.89° C | 50% | 1016.8 hPa | 0 mm | - | - | - |
| 1787852739 | 28.89° C | 54% | 1016.9 hPa | 0 mm | - | - | - |
| 1787852260 | 28.33° C | 54% | 1016.9 hPa | 0 mm | - | - | - |
| 1787851779 | 28.33° C | 55% | 1017 hPa | 0 mm | - | - | - |
* Rain latest hour (hover to see other rain measurements)
** Current wind speed in m/s (hover to see current wind gust speed)